Weather History for K3MW - November, 2011

Change the Weather History Date:

Monday, November 28, 2011

  Actual Average Record
Temperature  
Mean Temperature 34 °F -  
Max Temperature 37 °F - - ()
Min Temperature 30 °F - - ()
Degree Days  
Heating Degree Days 32    
Moisture  
Dew Point 3 °F    
Average Humidity 29    
Maximum Humidity 34    
Minimum Humidity 20    
Precipitation  
Precipitation 0.00 in - - ()
Sea Level Pressure  
Sea Level Pressure 30.45 in    
Wind  
Wind Speed 9 mph (SW)    
Max Wind Speed 15 mph    
Max Gust Speed 22 mph    
Visibility 10 miles    
Events      
T = Trace of Precipitation, MM = Missing Value Source: NWS Daily Summary

Daily Weather History Graph

Daily Weather History Graph

Search for Another Location

Airport or City:

Trip Planner

Search our weather history database for the weather conditions in past years. The results will help you decide how hot, cold, wet, or windy it might be!

Date:

Astronomy

Nov. 28, 2011 Rise Set
Actual Time 7:07 AM MST 4:42 PM MST
Civil Twilight 6:37 AM MST 5:12 PM MST
Nautical Twilight 6:03 AM MST 5:45 PM MST
Astronomical Twilight 5:31 AM MST 6:18 PM MST
Moon 10:18 AM MST (11/28) 8:32 PM MST (11/28)
Length of Visible Light 10h 34m
Length of Day
9h 34m
Waxing Crescent, 16% of the Moon is Illuminated
Nov 28
Waxing Crescent
Dec 2
First Quarter
Dec 10
Full
Dec 17
Last Quarter
Dec 24
New

Hourly Weather History & Observations

Time (MST) Temp. Windchill Dew Point Humidity Pressure Visibility Wind Dir Wind Speed Gust Speed Precip Events Conditions
12:03 AM 32.0 °F 23.6 °F 3.2 °F 30% 30.50 in 10.0 mi SW 10.4 mph - N/A   Clear
12:23 AM 32.0 °F 24.2 °F 3.2 °F 30% 30.50 in 10.0 mi SW 9.2 mph - N/A   Clear
12:43 AM 30.2 °F 23.4 °F 3.2 °F 32% 30.49 in 10.0 mi SW 6.9 mph - N/A   Clear
1:03 AM 32.0 °F 26.4 °F 3.2 °F 30% 30.48 in 10.0 mi SSW 5.8 mph - N/A   Clear
1:23 AM 32.0 °F 25.6 °F 3.2 °F 30% 30.48 in 10.0 mi SSW 6.9 mph - N/A   Clear
1:43 AM 32.0 °F 25.6 °F 1.4 °F 27% 30.49 in 10.0 mi SSW 6.9 mph - N/A   Clear
2:03 AM 30.2 °F 24.3 °F 1.4 °F 29% 30.48 in 10.0 mi SSW 5.8 mph - N/A   Clear
2:23 AM 30.2 °F 23.4 °F 1.4 °F 29% 30.49 in 10.0 mi SSW 6.9 mph - N/A   Clear
2:43 AM 30.2 °F 23.4 °F 3.2 °F 32% 30.48 in 10.0 mi SW 6.9 mph - N/A   Clear
3:03 AM 30.2 °F 20.8 °F 5.0 °F 34% 30.47 in 10.0 mi SW 11.5 mph 16.1 mph N/A   Clear
3:23 AM 30.2 °F 19.3 °F 5.0 °F 34% 30.47 in 10.0 mi SW 15.0 mph 21.9 mph N/A   Clear
3:43 AM 32.0 °F 22.5 °F 5.0 °F 32% 30.47 in 10.0 mi SW 12.7 mph 18.4 mph N/A   Clear
4:03 AM 32.0 °F 23.0 °F 3.2 °F 30% 30.46 in 10.0 mi SW 11.5 mph 16.1 mph N/A   Clear
4:23 AM 32.0 °F 23.6 °F 5.0 °F 32% 30.46 in 10.0 mi SW 10.4 mph - N/A   Clear
4:43 AM 30.2 °F 20.8 °F 3.2 °F 32% 30.46 in 10.0 mi SW 11.5 mph - N/A   Clear
5:03 AM 32.0 °F 23.0 °F 3.2 °F 30% 30.46 in 10.0 mi WSW 11.5 mph - N/A   Clear
5:23 AM 32.0 °F 23.0 °F 3.2 °F 30% 30.46 in 10.0 mi SW 11.5 mph - N/A   Clear
5:43 AM 32.0 °F 23.0 °F 3.2 °F 30% 30.46 in 10.0 mi SW 11.5 mph - N/A   Clear
6:03 AM 32.0 °F 22.5 °F 3.2 °F 30% 30.47 in 10.0 mi SW 12.7 mph 20.7 mph N/A   Clear
6:23 AM 32.0 °F 22.5 °F 5.0 °F 32% 30.46 in 10.0 mi SW 12.7 mph 18.4 mph N/A   Clear
6:43 AM 32.0 °F 22.5 °F 5.0 °F 32% 30.46 in 10.0 mi SW 12.7 mph 18.4 mph N/A   Clear
7:03 AM 30.2 °F 19.8 °F 5.0 °F 34% 30.46 in 10.0 mi SW 13.8 mph - N/A   Clear
7:23 AM 30.2 °F 20.8 °F 5.0 °F 34% 30.46 in 10.0 mi WSW 11.5 mph - N/A   Clear
7:43 AM 32.0 °F 22.5 °F 5.0 °F 32% 30.47 in 10.0 mi SW 12.7 mph 19.6 mph N/A   Clear
8:03 AM 32.0 °F 22.5 °F 3.2 °F 30% 30.47 in 10.0 mi WSW 12.7 mph 18.4 mph N/A   Clear
8:23 AM 32.0 °F 22.5 °F 3.2 °F 30% 30.47 in 10.0 mi SW 12.7 mph 20.7 mph N/A   Clear
8:43 AM 33.8 °F 25.8 °F 3.2 °F 28% 30.48 in 10.0 mi WSW 10.4 mph - N/A   Clear
9:03 AM 33.8 °F 25.8 °F 3.2 °F 28% 30.48 in 10.0 mi SW 10.4 mph - N/A   Clear
9:23 AM 33.8 °F 25.8 °F 1.4 °F 25% 30.48 in 10.0 mi WSW 10.4 mph 17.3 mph N/A   Clear
9:43 AM 35.6 °F 27.5 °F 1.4 °F 24% 30.47 in 10.0 mi WSW 11.5 mph 18.4 mph N/A   Clear
10:03 AM 35.6 °F 28.0 °F 1.4 °F 24% 30.47 in 10.0 mi WSW 10.4 mph - N/A   Clear
10:23 AM 35.6 °F 28.0 °F 1.4 °F 24% 30.47 in 10.0 mi WSW 10.4 mph 17.3 mph N/A   Clear
10:43 AM 35.6 °F 29.2 °F 1.4 °F 24% 30.47 in 10.0 mi WSW 8.1 mph 16.1 mph N/A   Clear
11:23 AM 35.6 °F 28.6 °F 1.4 °F 24% 30.46 in 10.0 mi SW 9.2 mph - N/A   Clear
11:43 AM 37.4 °F 30.3 °F -0.4 °F 20% 30.45 in 10.0 mi SW 10.4 mph 17.3 mph N/A   Clear
12:03 PM 35.6 °F 29.2 °F -0.4 °F 22% 30.45 in 10.0 mi WSW 8.1 mph 17.3 mph N/A   Clear
12:23 PM 35.6 °F 29.2 °F -0.4 °F 22% 30.44 in 10.0 mi WSW 8.1 mph - N/A   Clear
12:43 PM 35.6 °F 29.9 °F -0.4 °F 22% 30.45 in 10.0 mi WSW 6.9 mph - N/A   Clear
1:03 PM 37.4 °F 30.8 °F -0.4 °F 20% 30.44 in 10.0 mi SW 9.2 mph - N/A   Clear
1:23 PM 35.6 °F 29.9 °F -0.4 °F 22% 30.44 in 10.0 mi WSW 6.9 mph - N/A   Scattered Clouds
2:03 PM 35.6 °F 28.6 °F 1.4 °F 24% 30.43 in 10.0 mi WSW 9.2 mph - N/A   Scattered Clouds
2:23 PM 35.6 °F 27.5 °F 1.4 °F 24% 30.43 in 10.0 mi SW 11.5 mph - N/A   Clear
2:43 PM 35.6 °F 29.9 °F 3.2 °F 26% 30.42 in 10.0 mi SW 6.9 mph - N/A   Clear
3:03 PM 33.8 °F 27.0 °F 3.2 °F 28% 30.42 in 10.0 mi SW 8.1 mph - N/A   Clear
3:23 PM 33.8 °F 27.0 °F 3.2 °F 28% 30.42 in 10.0 mi SW 8.1 mph - N/A   Clear
3:43 PM 32.0 °F 26.4 °F 5.0 °F 32% 30.42 in 10.0 mi SW 5.8 mph - N/A   Clear
4:03 PM 32.0 °F 24.8 °F 5.0 °F 32% 30.42 in 10.0 mi SW 8.1 mph - N/A   Clear
4:23 PM 32.0 °F 24.8 °F 5.0 °F 32% 30.42 in 10.0 mi SW 8.1 mph - N/A   Mostly Cloudy
4:43 PM 32.0 °F 24.8 °F 5.0 °F 32% 30.42 in 10.0 mi SW 8.1 mph - N/A   Overcast
5:03 PM 32.0 °F 25.6 °F 5.0 °F 32% 30.42 in 10.0 mi WSW 6.9 mph - N/A   Overcast
5:23 PM 32.0 °F 25.6 °F 5.0 °F 32% 30.43 in 10.0 mi WSW 6.9 mph - N/A   Overcast
5:43 PM 32.0 °F 25.6 °F 3.2 °F 30% 30.43 in 10.0 mi SW 6.9 mph - N/A   Overcast
6:03 PM 32.0 °F 26.4 °F 3.2 °F 30% 30.43 in 10.0 mi WSW 5.8 mph - N/A   Overcast
6:23 PM 32.0 °F 25.6 °F 3.2 °F 30% 30.43 in 10.0 mi SW 6.9 mph - N/A   Mostly Cloudy
6:43 PM 32.0 °F 25.6 °F 3.2 °F 30% 30.43 in 10.0 mi SW 6.9 mph - N/A   Overcast
7:03 PM 32.0 °F 26.4 °F 3.2 °F 30% 30.44 in 10.0 mi WSW 5.8 mph - N/A   Overcast
7:23 PM 32.0 °F 27.5 °F 3.2 °F 30% 30.43 in 10.0 mi WSW 4.6 mph - N/A   Overcast
7:43 PM 32.0 °F 26.4 °F 3.2 °F 30% 30.43 in 10.0 mi SW 5.8 mph - N/A   Overcast
8:03 PM 32.0 °F 26.4 °F 3.2 °F 30% 30.43 in 10.0 mi SW 5.8 mph - N/A   Overcast
8:23 PM 32.0 °F 26.4 °F 5.0 °F 32% 30.42 in 10.0 mi SW 5.8 mph - N/A   Overcast
8:43 PM 32.0 °F 25.6 °F 5.0 °F 32% 30.43 in 10.0 mi SW 6.9 mph - N/A   Overcast
9:03 PM 32.0 °F 27.5 °F 5.0 °F 32% 30.43 in 10.0 mi SW 4.6 mph - N/A   Mostly Cloudy
9:23 PM 32.0 °F 27.5 °F 6.8 °F 35% 30.43 in 10.0 mi SW 4.6 mph - N/A   Mostly Cloudy
9:43 PM 32.0 °F 25.6 °F 8.6 °F 38% 30.43 in 10.0 mi SW 6.9 mph - N/A   Overcast
10:03 PM 32.0 °F 26.4 °F 8.6 °F 38% 30.43 in 10.0 mi SW 5.8 mph - N/A   Overcast
10:23 PM 32.0 °F 26.4 °F 8.6 °F 38% 30.42 in 10.0 mi SW 5.8 mph - N/A   Overcast
10:43 PM 32.0 °F 26.4 °F 8.6 °F 38% 30.41 in 10.0 mi SW 5.8 mph - N/A   Mostly Cloudy
11:23 PM 32.0 °F 25.6 °F 8.6 °F 38% 30.41 in 10.0 mi SW 6.9 mph - N/A   Overcast
11:43 PM 30.2 °F 22.6 °F 8.6 °F 40% 30.41 in 10.0 mi SW 8.1 mph - N/A   Overcast